SCP
0 0 0 0 0 0 0 0 0 0 0 0 0 0 0 0 0 0 0 0 0 0 0 0 0 0 0 0 0 0 0 0 0 0 0 0 0 0 0 0 0 0 0 0
0 0 0 0 0 0 0 0 0 0 0 0 0 0 0 0 0 0 0 0 0 0 0 0 0 0 0 0 0 0 0 0 0 0 0 0 0 0 0 0 0 0 0 0
0 0 0 0 0 0 0 0 0 0 0 0 0 0 0 0 0 0 0 0 0 0 0 0 0 0 0 0 0 0 0 0 0 0 0 0 0 0 0 0 0 0 0 0
0 0 0 0 0 0 0 0 0 0 0 0 0 0 0 0 0 0 0 0 0 0 0 0 0 0 0 0 0 0 0 0 0 0 0 0 0 0 0 0 0 0 0 0
0 0 0 0 0 0 0 0 0 0 0 0 0 0 0 0 0 -0 0 0 0 0 0 0 0 0 0 0 0 0 0 0 0 0 0 0 0 0 0 0 0 0 0 0
0 0 0 0 0 0 0 0 0 0 0 0 0 0 0 0 0 0 0 0 0 0 0 0 0 0 0 0 0 0 0 0 0 0 0 0 0 0 0 0 0 0 0 0
0 0 0 0 0 0 0 0 0 0 0 0 0 0 0 0 0 0 0 0 0 0 0 0 0 0 0 0 0 0 0 0 0 0 0 0 0 0 0 0 0 0 0 0
0 0 0 0 0 0 0 0 0 0 0 0 0 0 0 -0 0 0 0 0 0 0 0 0 0 0 0 0 0 0 0 0 0 0 0 0 0 0 0 0 0 0 0 0
0 0 0 0 0 0 0 0 0 0 0 0 0 0 -0 0 0 0 0 0 0 0 0 0 0 0 0 0 0 0 0 0 0 0 0 0 0 0 0 0 0 0 0 0
0 0 0 0 0 0 0 0 0 0 0 0 0 0 0 -0 0 0 0 0 0 0 0 0 0 0 0 0 0 0 0 0 0 0 0 0 0 0 0 0 0 0 0 0
0 0 0 0 0 0 0 0 0 0 0 0 0 0 0 0 0 0 0 0 0 0 0 0 0 0 0 0 0 0 0 0 0 0 0 0 0 0 0 0 0 0 0 0
0 0 0 0 0 0 0 0 0 0 0 0 0 0 0 0 0 0 0 0 0 0 0 0 0 0 0 0 0 0 0 0 0 0 0 0 0 0 0 0 0 0 0 0
0 0 0 0 0 0 0 0 0 0 0 0 0 0 0 0 0 0 0 0 0 0 0 0 0 0 0 0 0 0 0 0 0 0 0 0 0 0 0 0 0 0 0 0
0 0 0 0 0 0 0 0 0 0 0 0 0 0 0 0 0 0 0 0 0 0 0 0 0 0 0 0 0 0 0 0 0 0 0 0 0 0 0 0 0 0 0 0
0 0 0 0 0 0 0 0 0 0 0 0 0 0 0 0 0 0 0 0 0 0 0 0 0 0 0 0 0 0 0 0 0 0 0 0 0 0 0 0 0 0 0 0
0 0 0 0 0 0 0 0 0 0 0 0 0 0 0 0 0 0 0 0 0 0 0 0 0 0 0 0 0 0 0 0 0 0 0 0 0 0 0 0 0 0 0 0
0 0 0 0 0 0 0 0 0 0 0 0 0 0 0 0 0 0 0 0 0 0 0 0 0 0 0 0 0 0 0 0 0 0 0 0 0 0 0 0 0 0 0 0
0 0 0 0 0 0 0 0 0 0 0 0 0 0 0 0 0 0 0 0 0 0 0 0 0 0 0 0 0 0 0 0 0 0 0 0 0 0 0 0 0 0 0 0
0 -0 0 0 0 0 0 0 0 0 0 0 0 0 0 0 0 0 0 0 0 0 0 0 0 0 0 0 0 0 0 0 0 0 0 0 0 0 0 0 0 0 0 0
0 0 0 0 0 0 0 0 0 0 -0 0 0 0 0 0 0 0 0 0 0 0 0 0 0 0 0 0 0 0 0 0 0 0 0 0 0 0 0 0 0 0 0 0
0 0 0 0 0 0 0 0 0 0 0 0 0 0 0 0 0 0 0 0 0 0 0 0 0 0 0 0 0 0 0 0 0 0 0 0 0 0 0 0 0 0 0 0
0 0 0 0 0 0 0 0 0 0 0 0 0 0 0 -0 0 0 0 0 0 0 0 0 0 0 0 0 0 0 0 0 0 0 0 0 0 0 0 0 0 0 0 0
0 0 0 0 0 0 0 0 0 0 0 0 0 0 0 0 0 0 0 0 0 0 0 0 0 0 0 0 0 0 0 0 0 0 0 0 0 0 0 0 0 0 0 0
0 0 0 0 0 0 0 0 0 0 0 0 0 0 0 0 0 0 0 0 0 0 0 0 0 0 0 0 0 0 0 0 0 0 0 0 0 0 0 0 0 0 0 0
0 0 0 0 0 0 0 0 0 0 0 0 0 0 0 0 0 0 0 0 0 0 0 0 0 0 0 0 0 0 0 0 0 0 0 0 0 0 0 0 0 0 0 0
0 0 0 0 0 0 0 -0 0 0 0 0 0 0 0 0 0 0 0 -0 0 0 0 0 0 0 0 0 0 0 0 0 0 0 0 0 0 0 0 0 0 0 0 0
0 0 0 0 0 0 0 0 0 0 0 0 0 0 0 0 0 0 0 0 0 0 0 0 0 0 0 0 0 0 0 0 0 0 0 0 0 0 0 0 0 0 0 0
Wind_Speed_500mb
8 11 5 6 2 7 10 7 9 6 11 14 13 5 5 7 15 27 32 35 38 37 18 9 13 9 11 9 11 12 7 17 20 24 22 19 20 24 30 37 44 49 51 51
4 4 7 5 9 6 4 5 13 8 12 3 5 4 4 9 7 6 18 26 31 34 24 15 13 7 9 4 6 3 11 9 15 21 25 27 28 33 39 44 45 46 47 50
8 8 8 8 6 6 3 9 3 7 6 6 1 2 7 7 10 15 12 18 23 25 16 15 12 8 8 12 11 5 4 8 15 24 30 31 34 38 39 43 44 40 38 38
6 6 0 12 2 3 10 4 7 5 7 8 1 4 9 12 21 22 22 17 16 17 13 16 16 12 12 9 3 2 8 16 20 22 25 30 38 43 38 37 37 36 37 32
6 5 9 4 1 1 1 10 5 6 11 4 2 8 14 8 17 18 16 12 12 7 5 8 7 6 3 5 8 11 15 17 19 23 30 36 38 35 34 38 29 27 29 28
5 5 9 7 4 5 5 10 11 16 20 23 5 4 17 16 9 7 8 3 5 2 4 3 2 3 4 5 10 14 19 21 25 31 33 33 33 31 25 23 27 25 25 23
3 3 11 6 9 3 5 14 20 29 32 23 9 16 51 14 20 19 8 7 7 12 9 7 5 3 6 6 10 15 21 23 25 27 27 26 22 18 23 26 21 19 22 28
4 3 7 5 6 7 9 16 22 25 26 22 28 52 48 40 47 29 23 18 15 17 14 11 9 6 8 9 13 15 17 22 22 19 17 17 18 24 24 18 19 19 26 32
12 10 11 18 27 32 36 28 17 22 18 30 49 46 36 35 41 23 32 24 22 22 18 16 10 6 12 16 17 16 19 19 15 15 18 21 22 20 17 16 21 30 36 41
3 8 23 27 32 37 38 36 33 27 27 41 46 44 38 38 23 32 33 27 28 26 20 11 6 8 17 15 15 15 16 16 12 17 20 17 18 16 15 19 28 34 37 41
11 21 27 31 25 33 38 39 38 33 34 39 28 32 26 22 27 35 33 31 29 27 20 13 8 16 17 14 10 10 15 14 17 20 15 16 15 14 15 24 29 32 37 43
11 11 12 28 31 25 44 32 23 23 20 19 14 11 10 14 20 37 34 36 32 27 19 12 13 15 16 9 3 9 13 13 18 17 16 14 18 11 17 23 25 31 39 47
10 12 26 35 41 26 18 17 14 18 17 13 6 6 4 4 17 22 30 31 29 22 15 8 9 13 12 6 2 5 9 11 16 12 15 13 16 9 16 21 26 36 46 49
28 22 22 13 14 18 28 26 24 17 6 7 14 11 6 5 6 17 26 28 24 16 10 9 12 9 6 5 3 5 9 9 12 12 12 14 15 12 19 22 32 43 50 53
18 23 27 32 26 30 31 24 16 19 26 23 7 14 9 4 1 25 28 23 16 10 9 10 8 6 4 5 5 6 6 6 6 13 10 13 16 19 21 27 33 44 50 49
11 17 26 35 35 40 35 24 26 31 29 13 5 8 9 4 23 28 26 19 12 8 9 6 3 6 8 9 11 9 7 6 7 10 12 16 20 27 30 31 34 42 46 43
13 22 27 33 35 38 41 38 31 24 16 16 12 14 14 22 30 34 28 19 13 9 7 5 2 6 9 12 14 12 12 12 12 17 20 23 27 31 33 34 35 41 44 39
12 17 23 25 24 22 26 30 32 21 20 34 19 23 24 31 36 32 24 20 14 9 6 6 6 9 13 15 15 16 15 16 17 20 25 26 29 31 32 31 37 44 45 37
10 10 13 22 22 25 21 23 30 27 40 22 15 25 25 28 31 26 27 24 18 13 8 9 10 12 17 22 20 19 20 22 22 22 24 28 29 31 31 33 40 43 41 35
11 11 13 19 18 17 15 19 27 37 31 35 27 28 30 31 33 32 33 27 18 16 13 14 15 16 20 25 23 21 23 26 29 28 28 30 31 29 31 35 39 41 35 30
9 12 9 13 17 17 24 14 25 20 19 16 29 37 36 28 31 34 39 34 21 22 21 20 20 22 25 26 26 26 26 28 31 33 33 32 32 32 32 36 35 33 33 34
15 12 7 14 17 24 25 19 14 9 9 12 11 19 32 31 34 39 41 39 24 29 29 28 29 29 31 31 30 30 30 32 32 34 35 33 32 35 34 35 34 32 32 37
11 11 10 17 21 27 29 22 17 21 38 27 12 15 26 31 32 41 47 39 41 36 37 37 37 39 40 40 37 37 35 34 34 36 34 31 32 36 37 35 35 34 34 39
16 16 15 15 17 22 23 25 29 36 38 37 26 27 27 30 35 36 43 44 45 47 47 44 45 44 50 48 44 44 41 39 42 42 38 36 39 42 43 41 39 37 41 41
10 12 14 15 17 19 20 23 27 32 38 38 34 31 30 31 33 35 36 43 47 47 44 49 51 50 60 54 44 42 44 52 52 50 50 52 56 54 47 47 45 43 45 45
10 10 10 10 11 13 14 16 18 23 26 26 26 36 36 39 35 37 52 57 48 44 52 55 65 56 57 55 48 35 45 53 57 54 53 61 53 56 54 46 37 43 44 45
5 3 3 6 12 15 16 19 21 22 21 25 24 22 32 38 42 50 46 38 37 44 39 47 38 46 58 69 64 71 64 58 54 56 64 63 67 68 53 42 22 39 39 45
Wind_Direction_500mb
212 234 226 248 322 172 211 192 172 272 209 263 242 254 203 14 18 4 358 359 360 7 9 357 10 71 27 343 298 294 278 336 346 2 1 333 330 332 324 318 316 315 313 313
267 263 334 264 298 260 132 132 263 285 280 272 315 299 232 45 44 19 353 359 9 16 39 59 58 71 16 353 315 307 335 353 4 349 339 337 327 321 318 316 315 314 315 315
267 338 5 352 281 322 102 72 317 237 286 278 262 323 11 348 305 334 329 352 8 20 46 85 91 91 74 61 63 34 1 341 329 325 323 323 328 327 322 321 321 323 325 325
225 17 40 242 19 212 131 172 294 290 273 266 262 24 317 292 334 330 312 339 1 16 43 86 88 88 81 62 34 341 317 311 316 322 324 327 327 325 328 334 336 336 334 341
147 189 279 273 166 46 176 271 225 267 297 322 245 303 272 278 268 292 304 328 357 12 65 95 91 73 47 359 316 318 320 318 322 322 320 325 329 335 341 340 349 357 351 346
110 161 218 255 26 12 121 292 221 231 240 217 186 22 264 252 321 316 307 351 4 235 124 128 133 227 269 331 323 322 322 326 330 326 328 332 339 343 353 357 356 354 352 359
106 220 292 273 314 334 84 243 219 224 235 213 180 263 303 293 313 309 217 203 196 195 183 186 174 208 265 320 311 317 320 323 327 328 334 347 2 3 357 355 1 4 6 358
79 51 312 240 305 190 248 281 242 226 233 247 285 305 306 280 291 285 216 190 194 203 193 183 190 229 279 321 331 339 329 332 339 350 7 5 4 354 359 16 6 1 352 350
173 222 245 272 258 277 296 290 295 249 244 306 312 318 304 296 295 210 196 199 207 213 209 190 200 257 314 330 334 338 342 351 6 8 0 358 4 27 18 11 3 359 355 354
30 251 252 275 288 289 291 287 292 286 288 308 308 322 302 303 258 197 198 204 214 211 207 210 233 324 329 333 335 348 7 22 23 1 3 13 18 22 14 10 2 360 358 356
268 287 292 290 296 304 311 305 288 286 301 312 300 305 302 310 215 207 205 215 212 209 226 244 295 326 331 330 337 358 26 29 10 11 23 14 8 359 7 6 6 7 2 355
226 262 251 288 306 306 324 309 279 285 298 312 276 293 314 10 223 208 213 216 207 206 229 261 306 323 325 319 334 6 23 30 22 17 10 1 351 346 356 0 4 3 355 349
260 278 291 303 308 313 328 317 289 252 269 280 241 301 44 176 199 222 217 209 202 214 236 261 306 308 300 255 252 16 21 33 30 25 5 357 350 312 340 349 353 351 348 346
257 272 283 329 327 301 308 293 263 250 266 121 77 46 47 57 221 210 202 200 204 214 231 269 288 296 265 237 234 4 15 23 23 11 17 17 11 343 334 344 347 348 347 346
268 254 273 287 297 310 311 295 256 217 198 170 320 308 240 66 210 194 202 205 204 223 254 279 283 295 278 246 256 301 345 359 349 349 318 329 337 338 337 335 334 340 344 345
300 264 278 285 290 290 291 270 242 210 194 197 175 194 189 155 221 205 201 208 221 252 269 258 285 315 304 271 260 271 302 311 271 303 298 300 305 315 320 324 326 334 341 344
295 315 316 306 300 291 283 280 253 236 233 246 266 182 181 217 210 206 210 213 224 240 255 252 319 337 321 293 271 273 285 279 276 263 283 295 304 304 307 314 322 334 341 341
353 335 332 341 340 329 303 266 232 249 282 302 250 213 228 221 212 213 218 221 226 246 253 265 299 319 333 323 295 276 275 278 275 273 275 304 309 308 308 312 324 333 338 338
356 1 11 2 2 6 339 295 268 280 309 287 260 271 263 232 218 226 228 227 232 240 262 272 282 300 319 329 319 290 280 281 286 284 281 289 304 310 307 315 325 334 335 337
16 354 9 5 4 10 345 313 304 301 305 298 289 283 269 228 223 232 236 241 243 247 260 275 289 301 312 323 320 304 282 277 280 286 298 293 295 302 306 316 325 337 340 338
355 331 354 351 356 345 345 339 329 328 326 296 313 310 283 237 234 244 246 251 258 261 264 274 290 297 301 314 316 305 292 285 287 285 292 304 293 295 300 310 317 331 346 343
22 9 285 322 320 321 331 347 340 330 315 281 272 298 288 267 262 265 267 270 267 264 272 279 283 290 294 297 303 298 292 290 291 292 293 294 288 289 293 307 312 320 337 345
45 22 346 322 323 321 322 321 318 321 329 288 230 215 268 277 277 281 284 298 294 280 281 283 284 284 289 290 293 294 292 288 291 293 294 290 288 287 290 300 308 308 318 331
48 46 35 11 351 344 335 326 311 323 324 322 293 264 252 252 271 287 291 295 299 291 287 289 290 294 287 284 286 291 295 298 294 297 298 299 291 288 287 294 297 298 297 309
52 38 25 6 355 352 347 342 338 333 326 310 293 274 273 289 287 294 298 300 302 294 287 289 291 297 290 281 283 289 295 297 289 290 291 299 295 286 292 289 290 287 291 300
77 79 56 39 25 15 6 354 348 340 336 334 301 288 289 290 294 297 310 310 301 295 287 288 290 297 298 279 272 293 319 299 288 281 279 279 287 283 278 281 283 284 294 301
63 23 325 333 329 338 347 347 337 343 345 342 336 323 296 295 297 300 307 319 315 307 289 304 285 283 289 285 267 262 296 292 293 295 289 293 290 282 270 267 300 317 307 315
Wind_Speed_850mb
8 11 5 6 2 7 10 7 9 6 11 14 13 5 5 7 15 27 32 35 38 37 18 9 13 9 11 9 11 12 7 17 20 24 22 19 20 24 30 37 44 49 51 51
4 4 7 5 9 6 4 5 13 8 12 3 5 4 4 9 7 6 18 26 31 34 24 15 13 7 9 4 6 3 11 9 15 21 25 27 28 33 39 44 45 46 47 50
8 8 8 8 6 6 3 9 3 7 6 6 1 2 7 7 10 15 12 18 23 25 16 15 12 8 8 12 11 5 4 8 15 24 30 31 34 38 39 43 44 40 38 38
6 6 0 12 2 3 10 4 7 5 7 8 1 4 9 12 21 22 22 17 16 17 13 16 16 12 12 9 3 2 8 16 20 22 25 30 38 43 38 37 37 36 37 32
6 5 9 4 1 1 1 10 5 6 11 4 2 8 14 8 17 18 16 12 12 7 5 8 7 6 3 5 8 11 15 17 19 23 30 36 38 35 34 38 29 27 29 28
5 5 9 7 4 5 5 10 11 16 20 23 5 4 17 16 9 7 8 3 5 2 4 3 2 3 4 5 10 14 19 21 25 31 33 33 33 31 25 23 27 25 25 23
3 3 11 6 9 3 5 14 20 29 32 23 9 16 51 14 20 19 8 7 7 12 9 7 5 3 6 6 10 15 21 23 25 27 27 26 22 18 23 26 21 19 22 28
4 3 7 5 6 7 9 16 22 25 26 22 28 52 48 40 47 29 23 18 15 17 14 11 9 6 8 9 13 15 17 22 22 19 17 17 18 24 24 18 19 19 26 32
12 10 11 18 27 32 36 28 17 22 18 30 49 46 36 35 41 23 32 24 22 22 18 16 10 6 12 16 17 16 19 19 15 15 18 21 22 20 17 16 21 30 36 41
3 8 23 27 32 37 38 36 33 27 27 41 46 44 38 38 23 32 33 27 28 26 20 11 6 8 17 15 15 15 16 16 12 17 20 17 18 16 15 19 28 34 37 41
11 21 27 31 25 33 38 39 38 33 34 39 28 32 26 22 27 35 33 31 29 27 20 13 8 16 17 14 10 10 15 14 17 20 15 16 15 14 15 24 29 32 37 43
11 11 12 28 31 25 44 32 23 23 20 19 14 11 10 14 20 37 34 36 32 27 19 12 13 15 16 9 3 9 13 13 18 17 16 14 18 11 17 23 25 31 39 47
10 12 26 35 41 26 18 17 14 18 17 13 6 6 4 4 17 22 30 31 29 22 15 8 9 13 12 6 2 5 9 11 16 12 15 13 16 9 16 21 26 36 46 49
28 22 22 13 14 18 28 26 24 17 6 7 14 11 6 5 6 17 26 28 24 16 10 9 12 9 6 5 3 5 9 9 12 12 12 14 15 12 19 22 32 43 50 53
18 23 27 32 26 30 31 24 16 19 26 23 7 14 9 4 1 25 28 23 16 10 9 10 8 6 4 5 5 6 6 6 6 13 10 13 16 19 21 27 33 44 50 49
11 17 26 35 35 40 35 24 26 31 29 13 5 8 9 4 23 28 26 19 12 8 9 6 3 6 8 9 11 9 7 6 7 10 12 16 20 27 30 31 34 42 46 43
13 22 27 33 35 38 41 38 31 24 16 16 12 14 14 22 30 34 28 19 13 9 7 5 2 6 9 12 14 12 12 12 12 17 20 23 27 31 33 34 35 41 44 39
12 17 23 25 24 22 26 30 32 21 20 34 19 23 24 31 36 32 24 20 14 9 6 6 6 9 13 15 15 16 15 16 17 20 25 26 29 31 32 31 37 44 45 37
10 10 13 22 22 25 21 23 30 27 40 22 15 25 25 28 31 26 27 24 18 13 8 9 10 12 17 22 20 19 20 22 22 22 24 28 29 31 31 33 40 43 41 35
11 11 13 19 18 17 15 19 27 37 31 35 27 28 30 31 33 32 33 27 18 16 13 14 15 16 20 25 23 21 23 26 29 28 28 30 31 29 31 35 39 41 35 30
9 12 9 13 17 17 24 14 25 20 19 16 29 37 36 28 31 34 39 34 21 22 21 20 20 22 25 26 26 26 26 28 31 33 33 32 32 32 32 36 35 33 33 34
15 12 7 14 17 24 25 19 14 9 9 12 11 19 32 31 34 39 41 39 24 29 29 28 29 29 31 31 30 30 30 32 32 34 35 33 32 35 34 35 34 32 32 37
11 11 10 17 21 27 29 22 17 21 38 27 12 15 26 31 32 41 47 39 41 36 37 37 37 39 40 40 37 37 35 34 34 36 34 31 32 36 37 35 35 34 34 39
16 16 15 15 17 22 23 25 29 36 38 37 26 27 27 30 35 36 43 44 45 47 47 44 45 44 50 48 44 44 41 39 42 42 38 36 39 42 43 41 39 37 41 41
10 12 14 15 17 19 20 23 27 32 38 38 34 31 30 31 33 35 36 43 47 47 44 49 51 50 60 54 44 42 44 52 52 50 50 52 56 54 47 47 45 43 45 45
10 10 10 10 11 13 14 16 18 23 26 26 26 36 36 39 35 37 52 57 48 44 52 55 65 56 57 55 48 35 45 53 57 54 53 61 53 56 54 46 37 43 44 45
5 3 3 6 12 15 16 19 21 22 21 25 24 22 32 38 42 50 46 38 37 44 39 47 38 46 58 69 64 71 64 58 54 56 64 63 67 68 53 42 22 39 39 45
Wind_Direction_850mb
212 234 226 248 322 172 211 192 172 272 209 263 242 254 203 14 18 4 358 359 360 7 9 357 10 71 27 343 298 294 278 336 346 2 1 333 330 332 324 318 316 315 313 313
267 263 334 264 298 260 132 132 263 285 280 272 315 299 232 45 44 19 353 359 9 16 39 59 58 71 16 353 315 307 335 353 4 349 339 337 327 321 318 316 315 314 315 315
267 338 5 352 281 322 102 72 317 237 286 278 262 323 11 348 305 334 329 352 8 20 46 85 91 91 74 61 63 34 1 341 329 325 323 323 328 327 322 321 321 323 325 325
225 17 40 242 19 212 131 172 294 290 273 266 262 24 317 292 334 330 312 339 1 16 43 86 88 88 81 62 34 341 317 311 316 322 324 327 327 325 328 334 336 336 334 341
147 189 279 273 166 46 176 271 225 267 297 322 245 303 272 278 268 292 304 328 357 12 65 95 91 73 47 359 316 318 320 318 322 322 320 325 329 335 341 340 349 357 351 346
110 161 218 255 26 12 121 292 221 231 240 217 186 22 264 252 321 316 307 351 4 235 124 128 133 227 269 331 323 322 322 326 330 326 328 332 339 343 353 357 356 354 352 359
106 220 292 273 314 334 84 243 219 224 235 213 180 263 303 293 313 309 217 203 196 195 183 186 174 208 265 320 311 317 320 323 327 328 334 347 2 3 357 355 1 4 6 358
79 51 312 240 305 190 248 281 242 226 233 247 285 305 306 280 291 285 216 190 194 203 193 183 190 229 279 321 331 339 329 332 339 350 7 5 4 354 359 16 6 1 352 350
173 222 245 272 258 277 296 290 295 249 244 306 312 318 304 296 295 210 196 199 207 213 209 190 200 257 314 330 334 338 342 351 6 8 0 358 4 27 18 11 3 359 355 354
30 251 252 275 288 289 291 287 292 286 288 308 308 322 302 303 258 197 198 204 214 211 207 210 233 324 329 333 335 348 7 22 23 1 3 13 18 22 14 10 2 360 358 356
268 287 292 290 296 304 311 305 288 286 301 312 300 305 302 310 215 207 205 215 212 209 226 244 295 326 331 330 337 358 26 29 10 11 23 14 8 359 7 6 6 7 2 355
226 262 251 288 306 306 324 309 279 285 298 312 276 293 314 10 223 208 213 216 207 206 229 261 306 323 325 319 334 6 23 30 22 17 10 1 351 346 356 0 4 3 355 349
260 278 291 303 308 313 328 317 289 252 269 280 241 301 44 176 199 222 217 209 202 214 236 261 306 308 300 255 252 16 21 33 30 25 5 357 350 312 340 349 353 351 348 346
257 272 283 329 327 301 308 293 263 250 266 121 77 46 47 57 221 210 202 200 204 214 231 269 288 296 265 237 234 4 15 23 23 11 17 17 11 343 334 344 347 348 347 346
268 254 273 287 297 310 311 295 256 217 198 170 320 308 240 66 210 194 202 205 204 223 254 279 283 295 278 246 256 301 345 359 349 349 318 329 337 338 337 335 334 340 344 345
300 264 278 285 290 290 291 270 242 210 194 197 175 194 189 155 221 205 201 208 221 252 269 258 285 315 304 271 260 271 302 311 271 303 298 300 305 315 320 324 326 334 341 344
295 315 316 306 300 291 283 280 253 236 233 246 266 182 181 217 210 206 210 213 224 240 255 252 319 337 321 293 271 273 285 279 276 263 283 295 304 304 307 314 322 334 341 341
353 335 332 341 340 329 303 266 232 249 282 302 250 213 228 221 212 213 218 221 226 246 253 265 299 319 333 323 295 276 275 278 275 273 275 304 309 308 308 312 324 333 338 338
356 1 11 2 2 6 339 295 268 280 309 287 260 271 263 232 218 226 228 227 232 240 262 272 282 300 319 329 319 290 280 281 286 284 281 289 304 310 307 315 325 334 335 337
16 354 9 5 4 10 345 313 304 301 305 298 289 283 269 228 223 232 236 241 243 247 260 275 289 301 312 323 320 304 282 277 280 286 298 293 295 302 306 316 325 337 340 338
355 331 354 351 356 345 345 339 329 328 326 296 313 310 283 237 234 244 246 251 258 261 264 274 290 297 301 314 316 305 292 285 287 285 292 304 293 295 300 310 317 331 346 343
22 9 285 322 320 321 331 347 340 330 315 281 272 298 288 267 262 265 267 270 267 264 272 279 283 290 294 297 303 298 292 290 291 292 293 294 288 289 293 307 312 320 337 345
45 22 346 322 323 321 322 321 318 321 329 288 230 215 268 277 277 281 284 298 294 280 281 283 284 284 289 290 293 294 292 288 291 293 294 290 288 287 290 300 308 308 318 331
48 46 35 11 351 344 335 326 311 323 324 322 293 264 252 252 271 287 291 295 299 291 287 289 290 294 287 284 286 291 295 298 294 297 298 299 291 288 287 294 297 298 297 309
52 38 25 6 355 352 347 342 338 333 326 310 293 274 273 289 287 294 298 300 302 294 287 289 291 297 290 281 283 289 295 297 289 290 291 299 295 286 292 289 290 287 291 300
77 79 56 39 25 15 6 354 348 340 336 334 301 288 289 290 294 297 310 310 301 295 287 288 290 297 298 279 272 293 319 299 288 281 279 279 287 283 278 281 283 284 294 301
63 23 325 333 329 338 347 347 337 343 345 342 336 323 296 295 297 300 307 319 315 307 289 304 285 283 289 285 267 262 296 292 293 295 289 293 290 282 270 267 300 317 307 315